[[{"header":{"parameterUnit":"m.s-1","parameterCategory":1,"la1":30.2991,"la2":30.254,"lo1":-89.0895,"lo2":-89.0444,"dy":0.0017,"dx":0.0017,"nx":28,"ny":28,"refTime":"2024-06-21T09:00:00:Z","depth":0,"parameterNumber":2,"parameterNumberName":"U-component_of_WINDS"},"data":[0,0,0,0,0,0,0,0,0,0,0,0,0,0,0,0,0,0,0,0,0,0,0,0,0,0,0,0,0,0,0,0,0,0,0,0,0,0,0,0,0,0,0,0,0,0,0,0,0,0,0,0,0,0,0,0,0,0,0.9838,0.9839,0,0.9911,0.9912,0.9913,0.9929,0.9929,0.9928,0.9928,1.0001,1.0004,1.0006,0,0,0,0,0,0,0,0,0,0,0,0,0,0.971,0.9712,0.9838,0.9839,0.984,0.9911,0.9912,0.9913,0.9929,0.9929,0.9928,0.9927,1.0001,1.0004,1.0006,0,0,0,0,0,0,0,0,0,0,0,0,0,0.9772,0.9713,0.9837,0.9856,0.9859,0.9911,0.9912,0.9913,0.9929,0.9929,0.9928,0.9927,1.0,1.0003,1.0007,1.0045,0,0,1.0018,1.002,0,0,0,0,0,0,0,0,0.9769,0.9777,0.9853,0.9855,0.9858,0.991,0.9894,0.9957,0.993,0.9903,0.9928,0.9927,0.9972,0.9978,0.9993,1.0048,1.0052,1.0018,1.0021,1.0022,1.0023,0,0,0,0,0,0,0,0.9765,0.9774,0.9867,0.9854,0.9857,0.986,0.9869,0.9906,0.994,0.9905,0.9906,0.9915,0.9973,0.9989,0.9995,1.0053,1.0018,1.0022,1.0024,1.0025,1.0143,1.0143,0,0,0,0,0,0,0.9757,0.977,0.9864,0.9869,0.9811,0.9863,0.9872,0.9894,0.994,0.9946,0.9915,0.9915,0.9984,0.9991,0.9997,1.0045,1.0022,1.0026,1.0028,1.0142,1.0143,1.0144,0,0,0,0,0,0,0.9754,0.9765,0.9861,0.982,0.9833,0.9866,0.9891,0.9896,0.9913,0.9948,0.9954,0.9926,0.9983,0.9992,1.0033,1.0047,1.0027,1.0031,1.0141,1.0142,1.0143,1.0139,0,0,0,0,0,0,0.9751,0.9764,0.9779,0.982,0.9835,0.9896,0.9892,0.9898,0.9919,0.992,0.996,0.9966,0.9983,1.0027,1.0037,1.0052,1.0033,1.0139,1.0141,1.0143,1.0138,1.014,1.0142,0,0,0,0,0,0.9746,0.9775,0.978,0.9791,0.9854,0.9897,0.9905,0.9925,0.992,0.9935,0.9958,0.9964,1.0045,1.0032,1.0042,1.0059,1.0139,1.0141,1.0143,1.0137,1.014,1.0142,0,0,0,0,0,0,0.9734,0.9781,0.9787,0.983,0.986,0.99,0.9919,0.9927,0.9958,0.9958,0.9981,0.999,1.0029,1.0048,1.0033,1.0098,1.0091,1.0096,1.0084,1.0087,1.0088,1.0082,1.0037,0,0,0,0,0,0.9737,0.9768,0.9807,0.9841,0.9856,0.9885,0.9904,0.9918,0.9949,0.9961,0.9987,1.0016,1.0048,1.0069,1.01,1.0142,1.015,1.0158,1.016,1.0162,1.0165,1.0188,1.0191,1.0151,1.0151,1.0151,0,0,0.9743,0.9772,0.979,0.984,0.9864,0.9895,0.9895,0.9928,0.9951,0.9966,1.0006,1.0026,1.006,1.0101,1.0121,1.0118,1.0178,1.0164,1.0165,1.0167,1.019,1.0194,1.0197,1.0152,1.0152,1.0152,0,0,0.9768,0.9794,0.9825,0.985,0.9887,0.9906,0.9913,0.9953,0.9966,1.0007,1.0018,1.0046,1.0101,1.0125,1.0144,1.0179,1.0185,1.0188,1.0198,1.022,1.0223,1.0226,1.0238,1.0242,1.0192,1.0192,1.0192,0,0.977,0.9818,0.984,0.9873,0.9894,0.9909,0.9941,0.9963,1.0008,1.0022,1.0019,1.0088,1.0112,1.0159,1.0167,1.0183,1.0192,1.0183,1.0221,1.0224,1.0228,1.0239,1.0243,1.0192,1.0192,1.0192,1.0192,0,0.9818,0.9851,0.9872,0.9916,0.9939,0.9971,0.9998,1.0019,1.003,1.005,1.009,1.012,1.0158,1.017,1.0181,1.0218,1.0216,1.0217,1.021,1.0231,1.0242,1.0247,1.0192,1.0192,1.0192,1.0192,0,0,0.9838,0.9894,0.9901,0.9921,0.9963,0.9988,1.0021,1.0058,1.0075,1.0106,1.0133,1.0179,1.018,1.0202,1.0216,1.0236,1.0261,1.0235,1.0236,1.0238,1.0303,1.0301,1.0306,1.0266,1.0267,1.0267,1.0299,0,0.9868,0.9927,0.9948,0.9996,1.0026,1.0041,1.0069,1.0098,1.0117,1.0145,1.0166,1.0198,1.0198,1.0211,1.0231,1.0253,1.0274,1.0252,1.029,1.0292,1.028,1.0312,1.031,1.0339,1.0304,1.0305,1.0305,0,0.9911,0.9943,0.9994,1.0032,1.0045,1.007,1.0106,1.0133,1.0165,1.0178,1.0202,1.0215,1.0249,1.0241,1.0288,1.0272,1.029,1.0303,1.0305,1.0308,1.0299,1.0315,1.0348,1.0352,1.0313,1.0312,1.0311,0,0.9919,0.9974,1.0012,1.0029,1.0074,1.0091,1.0111,1.0143,1.0164,1.0195,1.0209,1.0243,1.0262,1.0288,1.0309,1.0302,1.0353,1.0348,1.0364,1.0364,1.0373,1.0372,1.0409,1.0386,1.0386,1.0386,1.0386,0,0.995,0.998,1.0016,1.0039,1.0074,1.0098,1.0131,1.0151,1.018,1.0207,1.0222,1.0247,1.0274,1.0302,1.0319,1.0355,1.0363,1.0374,1.0378,1.0372,1.037,1.0383,1.0381,1.0387,1.0387,1.0387,1.0386,0,0.9964,0.999,1.0032,1.0072,1.0082,1.0106,1.014,1.0163,1.0183,1.0216,1.0226,1.0257,1.0291,1.0315,1.0359,1.0371,1.0408,1.0413,1.0397,1.0399,1.0414,1.0412,1.0459,1.0466,1.0439,1.0439,1.044,0,0.9982,1.0005,1.0048,1.0068,1.0087,1.0118,1.014,1.0164,1.0186,1.0225,1.0243,1.0278,1.0307,1.0361,1.0387,1.0421,1.0425,1.044,1.043,1.0424,1.0424,1.0422,1.0425,1.044,1.0441,1.0441,1.0441,0,1.001,1.0021,1.0052,1.0087,1.0113,1.0141,1.017,1.0185,1.0214,1.0238,1.0273,1.0296,1.0341,1.0375,1.0412,1.0431,1.0441,1.0444,1.0449,1.0443,1.0433,1.0438,1.04,1.0442,1.0442,1.0442,1.0442,1.0442,1.0026,1.0047,1.0081,1.0114,1.0139,1.0166,1.0189,1.0212,1.0242,1.0281,1.0293,1.0329,1.0361,1.0411,1.0431,1.046,1.0459,1.0467,1.0469,1.047,1.0469,1.0429,1.0466,1.0466,1.0466,1.0466,1.0466,0,1.0054,1.0076,1.0107,1.0147,1.0173,1.0181,1.0213,1.0235,1.0267,1.0296,1.0325,1.0365,1.0398,1.0428,1.0462,1.0479,1.0485,1.0488,1.0486,1.049,1.0468,1.046,1.0483,1.0483,1.0483,1.0483,1.0483,1.0483,1.0071,1.0108,1.0124,1.0173,1.0195,1.0231,1.0249,1.0273,1.0297,1.0341,1.0369,1.0388,1.0418,1.0455,1.0486,1.0493,1.0505,1.0507,1.0515,1.0494,1.0492,1.049,1.0482,1.0509,1.0509,1.0535,1.0535,1.0535]},{"header":{"parameterUnit":"m.s-1","parameterCategory":1,"la1":30.2991,"la2":30.254,"lo1":-89.0895,"lo2":-89.0444,"dy":0.0017,"dx":0.0017,"nx":28,"ny":28,"refTime":"2024-06-21T09:00:00:Z","depth":0,"parameterNumber":3,"parameterNumberName":"V-component_of_WINDS"},"data":[0,0,0,0,0,0,0,0,0,0,0,0,0,0,0,0,0,0,0,0,0,0,0,0,0,0,0,0,0,0,0,0,0,0,0,0,0,0,0,0,0,0,0,0,0,0,0,0,0,0,0,0,0,0,0,0,0,0,2.8973,2.8973,0,2.895,2.895,2.8949,2.8888,2.8887,2.8886,2.8884,2.8861,2.8862,2.8863,0,0,0,0,0,0,0,0,0,0,0,0,0,2.8966,2.8966,2.8973,2.8973,2.8973,2.895,2.895,2.8949,2.8888,2.8887,2.8885,2.8884,2.8861,2.8862,2.8863,0,0,0,0,0,0,0,0,0,0,0,0,0,2.8958,2.8966,2.8973,2.894,2.8936,2.895,2.8949,2.8949,2.8889,2.8887,2.8885,2.8883,2.8861,2.8862,2.8863,2.8907,0,0,2.8865,2.8866,0,0,0,0,0,0,0,0,2.8959,2.8959,2.8945,2.8942,2.8938,2.892,2.8938,2.8935,2.8889,2.8907,2.8884,2.8882,2.8883,2.8882,2.8881,2.8906,2.8905,2.8866,2.8866,2.8867,2.8867,0,0,0,0,0,0,0,2.8959,2.8959,2.8964,2.8945,2.8941,2.8926,2.8923,2.8937,2.8906,2.8905,2.8901,2.8899,2.888,2.8881,2.888,2.8905,2.8866,2.8866,2.8867,2.8867,2.8964,2.8966,0,0,0,0,0,0,2.8965,2.896,2.8965,2.8963,2.8944,2.8927,2.8924,2.8928,2.8906,2.89,2.89,2.8896,2.888,2.8879,2.8879,2.8929,2.8867,2.8867,2.8868,2.8962,2.8965,2.8967,0,0,0,0,0,0,2.8965,2.8966,2.8966,2.896,2.8959,2.893,2.8935,2.8928,2.8929,2.8902,2.8896,2.8907,2.8879,2.8878,2.8901,2.8928,2.8868,2.8869,2.896,2.8963,2.8966,2.903,0,0,0,0,0,0,2.8965,2.8966,2.8983,2.8961,2.896,2.8987,2.8936,2.8929,2.893,2.8924,2.8906,2.8901,2.8877,2.89,2.8902,2.8928,2.8869,2.8957,2.8961,2.8965,2.9026,2.9035,2.9043,0,0,0,0,0,2.8965,2.9002,2.8984,2.8985,2.898,2.8989,2.8988,2.8959,2.8933,2.8949,2.8932,2.8902,2.8925,2.8902,2.8904,2.8931,2.8956,2.896,2.8965,2.9022,2.9033,2.9043,0,0,0,0,0,0,2.9028,2.8999,2.8978,2.901,2.9002,2.8979,2.8998,2.8973,2.8973,2.8967,2.8931,2.8928,2.8955,2.8945,2.8921,2.8973,2.8935,2.894,2.8978,2.8989,2.8997,2.8999,2.887,0,0,0,0,0,2.9046,2.9055,2.9029,2.906,2.9057,2.9029,2.9031,2.901,2.9,2.8997,2.8982,2.8974,2.8979,2.8984,2.8987,2.9024,2.9019,2.9044,2.9052,2.906,2.9064,2.9082,2.9093,2.8982,2.8982,2.8982,0,0,2.9082,2.9067,2.9076,2.9072,2.9063,2.9074,2.9026,2.904,2.9047,2.8999,2.9019,2.9008,2.8997,2.9027,2.9039,2.9019,2.9094,2.9066,2.9072,2.9072,2.9088,2.9099,2.9108,2.8985,2.8985,2.8984,0,0,2.9154,2.9144,2.9167,2.916,2.9147,2.9128,2.9134,2.9114,2.9105,2.9124,2.9088,2.9097,2.9107,2.91,2.9098,2.9167,2.9139,2.917,2.9216,2.9234,2.9242,2.925,2.9273,2.9282,2.9174,2.9175,2.9175,0,2.92,2.9215,2.9183,2.9198,2.9197,2.9154,2.9178,2.9172,2.9162,2.9163,2.9141,2.9152,2.9142,2.9169,2.9186,2.9186,2.9191,2.9171,2.9244,2.9251,2.9257,2.9279,2.9288,2.9178,2.9178,2.9177,2.9177,0,2.9272,2.9283,2.9303,2.9294,2.9296,2.9315,2.9286,2.9292,2.927,2.9253,2.9273,2.926,2.9259,2.9264,2.9243,2.9288,2.9276,2.925,2.9211,2.9272,2.9292,2.93,2.9184,2.9182,2.9181,2.918,0,0,2.9383,2.9355,2.9363,2.9358,2.9341,2.9348,2.9366,2.9365,2.937,2.9365,2.9378,2.9388,2.9363,2.9361,2.9339,2.9355,2.9409,2.9326,2.9325,2.9341,2.9456,2.9476,2.9486,2.9391,2.9392,2.9393,2.9457,0,2.9449,2.9477,2.9449,2.9482,2.9491,2.945,2.9465,2.9457,2.9442,2.9447,2.943,2.9437,2.9404,2.9402,2.9416,2.9399,2.9431,2.9394,2.9402,2.9403,2.9405,2.9497,2.9518,2.9578,2.9465,2.9466,2.9467,0,2.953,2.9528,2.9562,2.9542,2.9545,2.9559,2.9555,2.9561,2.9551,2.9539,2.9536,2.951,2.9525,2.9488,2.9509,2.9485,2.9486,2.9478,2.948,2.9479,2.9438,2.9497,2.9597,2.9606,2.9479,2.9478,2.9477,0,2.9606,2.9611,2.9632,2.9629,2.9607,2.9618,2.9609,2.9596,2.9598,2.9595,2.9595,2.9595,2.9594,2.9594,2.9568,2.9544,2.9592,2.9553,2.9582,2.9583,2.9593,2.9593,2.9693,2.9596,2.9596,2.9596,2.9596,0,2.9682,2.9705,2.9666,2.9678,2.9702,2.967,2.9694,2.9681,2.967,2.968,2.9645,2.9655,2.962,2.9626,2.9606,2.9626,2.9626,2.9617,2.9611,2.9619,2.962,2.9619,2.9614,2.9598,2.9598,2.9597,2.9597,0,2.9771,2.9745,2.9765,2.9742,2.9737,2.9756,2.9736,2.9747,2.973,2.9742,2.9743,2.9716,2.9721,2.9695,2.9696,2.9683,2.9712,2.97,2.9716,2.9712,2.9741,2.9739,2.9844,2.9856,2.9752,2.9753,2.9754,0,2.9821,2.9837,2.9815,2.9819,2.9812,2.9819,2.9819,2.9788,2.979,2.9779,2.9791,2.9794,2.9794,2.9804,2.9784,2.9785,2.9772,2.9809,2.9771,2.9779,2.9771,2.977,2.9771,2.9816,2.9817,2.9819,2.9819,0,2.9912,2.9898,2.99,2.9898,2.99,2.9897,2.9891,2.9896,2.9863,2.9867,2.9872,2.9872,2.9872,2.9875,2.9871,2.9862,2.9835,2.9831,2.9838,2.9846,2.9854,2.9849,2.9736,2.9829,2.9828,2.9827,2.9827,2.9826,2.9982,2.9994,2.998,2.9984,2.9976,2.9972,2.9981,2.9964,2.9967,2.9965,2.9947,2.9955,2.9943,2.9935,2.9929,2.9935,2.9917,2.9927,2.9929,2.9932,2.9937,2.9854,2.9934,2.9934,2.9934,2.9933,2.9933,0,3.007,3.0059,3.0063,3.0056,3.0059,3.0033,3.0025,3.0029,3.0037,3.0028,3.0029,3.0034,3.0036,3.0017,3.0016,3.0025,3.0012,3.0026,3.0024,3.0022,2.9953,2.9947,3.0036,3.0036,3.0036,3.0036,3.0036,3.0036,3.0116,3.0135,3.012,3.0135,3.0124,3.0131,3.0129,3.0124,3.0117,3.0124,3.0126,3.0113,3.01,3.0098,3.0099,3.0094,3.0095,3.0112,3.0102,3.0037,3.0027,3.0018,3.0012,3.0113,3.0113,3.0171,3.0171,3.0172]}]]